Regional Weather Roundup
Issued by NWS

Home | Current Version | Previous Version | Graphics & Text | Print | Product List | Glossary On
Versions: 1 2 3 4 5 6 7 8 9 10 11 12 13 14 15 16 17 18 19 20 21 22 23 24 25 26 27 28 29 30 31 32 33 34 35 36 37 38 39 40 41 42 43 44 45 46 47 48 49 50
827
ASUS43 KMPX 232310
RWRMN
WEATHER ROUNDUP FOR MINNESOTA
NATIONAL WEATHER SERVICE TWIN CITIES/CHANHASSEN MN
600 PM CDT TUE MAY 23 2017


NOTE: "FAIR" INDICATES FEW OR NO CLOUDS BELOW 12,000 FEET WITH NO
SIGNIFICANT WEATHER AND/OR OBSTRUCTIONS TO VISIBILITY. N/A MEANS
CURRENT SKY AND/OR WEATHER CONDITIONS ARE NOT AVAILABLE.

MNZ060>063-068>070-240000-
   Twin Cities Metro

CITY           SKY/WX    TMP DP  RH WIND       PRES   REMARKS
TWIN CITIES    LGT RAIN  59  46  62 E9        29.80R
ST PAUL        CLOUDY    59  48  67 NE8       29.80S
CRYSTAL        CLOUDY    59  42  53 N12       29.79R
BLAINE         PTSUNNY   63  46  55 N6        29.80S
LAKEVILLE      CLOUDY    55  46  71 NE8       29.80R
EDEN PRAIRIE   PTSUNNY   61  45  55 N7        29.78S
SOUTH ST PAUL  CLOUDY    60  47  61 E8        29.79S
LAKE ELMO      PTSUNNY   55  48  76 NE5       29.81S
$$
MNZ001>005-007-008-013>017-022>024-027-028-240000-
   Northwest Minnesota

CITY           SKY/WX    TMP DP  RH WIND       PRES   REMARKS
BEMIDJI        PTSUNNY   56  43  63 NE10      29.92F
HALLOCK        PTSUNNY   66  34  30 E9G16     29.96F
ROSEAU         SUNNY     63  43  48 E13       29.96S
WARROAD        SUNNY     61  46  59 E7        29.97F
THIEF RVR FALL CLOUDY    57  42  57 NE10      29.97R
CROOKSTON      CLOUDY    59  43  55 NE12      29.97S
FOSSTON        CLOUDY    54  46  76 NE10G20   29.96R
DETROIT LAKES  CLOUDY    52  45  76 NE9       29.94S
MOORHEAD       CLOUDY    55  45  67 NE16      29.95S
PARK RAPIDS    CLOUDY    54  43  66 NE13G21   29.91S
MAHNOMEN       MOCLDY    54  44  67 N12       29.93F
$$
MNZ006-009>011-018-025>026-240000-
   North Central Minnesota

CITY           SKY/WX    TMP DP  RH WIND       PRES   REMARKS
BAUDETTE       CLOUDY    60  41  49 NE10      29.95F
FLAG ISLAND    MOSUNNY   63  34  34 NE9G16    29.94F
INTL FALLS     LGT RAIN  54  42  64 NE10      29.94S
WASKISH        CLOUDY    55  45  67 NE10      29.95S
BIG FORK       CLOUDY    54  45  71 N10       29.92S
LONGVILLE      CLOUDY    52  48  87 NE6       29.89F
GRAND RAPIDS   LGT RAIN  53  45  74 N7        29.91R
CRANE LAKE     CLOUDY    55  43  62 NE6       29.94S
ORR            CLOUDY    54  39  58 N5        29.90S
COOK           PTSUNNY   52  43  71 NE6       29.91S
WALKER         CLOUDY    51  44  76 NE6       29.91S
$$
MNZ012-019>021-037-240000-
   Northeast Minnesota

CITY           SKY/WX    TMP DP  RH WIND       PRES   REMARKS
DULUTH         PTSUNNY   51  45  79 E9        29.88R
ELY            CLOUDY    52  43  71 NE9       29.89F
HIBBING        CLOUDY    52  44  74 N13G18    29.89R
EVELETH        PTSUNNY   53  42  65 N9G16     29.90S
DULUTH HARBOR  CLOUDY    45  43  93 NE9       29.91R
TWO HARBORS    CLOUDY    52  46  82 E7        29.88S
SILVER BAY     CLOUDY    48  48 100 E8        29.88S FOG
GRAND MARAIS     N/A     46  43  89 CALM      29.89S
G MARAIS ARPRT CLOUDY    50  39  66 NE8       29.89S
$$
MNZ029>031-032-039>041-046>048-054>057-064-240000-
   West Central Minnesota

CITY           SKY/WX    TMP DP  RH WIND       PRES   REMARKS
FERGUS FALLS   CLOUDY    55  45  67 NE8G16    29.89S
WHEATON        CLOUDY    55  46  71 N13G21    29.92S
MORRIS         CLOUDY    55  46  71 NE3       29.87S
ALEXANDRIA     MOSUNNY   58  44  60 N10       29.88S
ELBOW LAKE     CLOUDY    55  45  69 NE14G21   29.89S
WADENA         CLOUDY    54  46  76 N9        29.89S
GLENWOOD       MOSUNNY   57  45  62 NE17      29.87R
APPLETON       PTSUNNY   59  43  55 N15       29.86S
BENSON         SUNNY     59  45  58 NE12      29.88R
ORTONVILLE     PTSUNNY   55  46  71 N16       29.88S
MADISON        PTSUNNY   59  46  63 N13       29.87S
WILLMAR        FAIR      57  46  67 N12       29.86S
$$
MNZ033>034-036-042>043-049>051-058-059-240000-
   Central Minnesota

CITY           SKY/WX    TMP DP  RH WIND       PRES   REMARKS
ST CLOUD       PTSUNNY   59  45  59 NE10      29.84S
SAUK CENTRE    CLOUDY    56  43  59 N8        29.86S
PAYNESVILLE    RAIN      53  47  81 N5        29.85F
AITKIN         CLOUDY    54  46  76 N7        29.86R
PINE RIVER     RAIN      52  48  87 N7        29.93S
BRAINERD       PTSUNNY   57  45  64 N17G25    29.88R
STAPLES        CLOUDY    55  45  67 N13       29.89S
LONG PRAIRIE   PTSUNNY   57  41  54 N8G23     29.87S
LITTLE FALLS   CLOUDY    55  43  62 N6        29.86S
LITCHFIELD     MOSUNNY   61  48  63 N15       29.84S
BUFFALO        MOSUNNY   57  47  69 NW10      29.83R
MAPLE LAKE     CLOUDY    56  51  81 N7        29.84S
HUTCHINSON     PTSUNNY   59  48  65 N12G26    29.83S
$$
MNZ037-044-045-052-053-240000-
   East Central Minnesota

CITY           SKY/WX    TMP DP  RH WIND       PRES   REMARKS
PRINCETON      PTSUNNY   61  48  63 N12       29.83F
MORA           PTSUNNY   55  41  58 N5        29.85S
CAMBRIDGE      CLOUDY    61  46  59 N10       29.81S
RUSH CITY      CLOUDY    57  46  65 NE7       29.83S
MOOSE LAKE     CLOUDY    55  43  62 NE9G16    29.84S
HINCKLEY       CLOUDY    59  46  63 NE9G17    29.84S
CLOQUET        LGT RAIN  50  43  76 E7        29.88S
MCGREGOR       CLOUDY    55  46  71 N9        29.87S
$$
MNZ071>073-080-081-089-090-097-098-240000-
   Southwest Minnesota

CITY           SKY/WX    TMP DP  RH WIND       PRES   REMARKS
MONTEVIDEO     RAIN      54  48  82 E17       29.87R
CANBY          MOSUNNY   57  48  73 NW10G17   29.88R
MARSHALL       MOSUNNY   58  46  64 N14       29.85R
REDWOOD FALLS  PTSUNNY   58  44  60 N9G22     29.83S
OLIVIA         MOSUNNY   57  46  67 N13       29.83S
PIPESTONE      PTSUNNY   55  43  62 N13G18    29.85R
WINDOM         CLOUDY    55  46  71 N8        29.82S
WORTHINGTON    PTSUNNY   54  46  74 N15       29.83R
JACKSON        MOSUNNY   55  45  67 N16       29.82S
TRACY          CLOUDY    57  46  67 NE12      29.84S
SLAYTON        PTSUNNY   52  44  74 N10       29.84S
$$
MNZ065>067-074>077-082>085-091>093-240000-
   South Central Minnesota

CITY           SKY/WX    TMP DP  RH WIND       PRES   REMARKS
MANKATO        CLOUDY    53  48  83 N7        29.80F
NEW ULM        DRIZZLE   55  46  71 NW5       29.81S
ST JAMES       LGT RAIN  55  48  76 NW9       29.82S
FAIRMONT       LGT RAIN  53  48  83 NE10      29.81S
GLENCOE        CLOUDY    56  51  82 N8        29.81R
FARIBAULT      CLOUDY    55  48  76 N7        29.80S
OWATONNA       DRIZZLE   54  48  82 N6        29.79S
WASECA         DRIZZLE   54  46  76 N6        29.80S
ALBERT LEA     RAIN      54  50  87 N6        29.78S
$$
MNZ078>079-086>088-094>096-240000-
   Southeast Minnesota

CITY           SKY/WX    TMP DP  RH WIND       PRES   REMARKS
ROCHESTER      LGT RAIN  51  50  96 N14       29.77S
RED WING       LGT RAIN  57  45  62 NE6       29.77S
STANTON        CLOUDY    57  48  73 NE6       29.78S
DODGE CENTER   LGT RAIN  50  48  93 N13       29.78S
WINONA         CLOUDY    55  48  76 N5        29.75R
AUSTIN         RAIN      50  46  87 N6        29.77S
PRESTON        CLOUDY    52  48  86 N9        29.75S
$$
ABBREVIATIONS USED IN REMARKS
   TC - TEMPERATURES IN CELSIUS
  WCI - WIND CHILL INDEX
   HX - HEAT INDEX
  VSB - VISIBILITY
$$




USA.gov is the U.S. government's official web portal to all federal, state and local government web resources and services.